Flag for France Weather past 2 weeks in Aix-en-Provence, France

Now
73 °F

Clear.


Feels Like: 76 °F
Forecast: 66 / 95 °F
Wind: 5 mph from Southeast

Location: Marseille / Marignane

Current Time: Jul 5, 2015 at 2:52:01 AM

Latest Report: Jul 5, 2015 at 2:30 AM


Visibility: 10 mi

Pressure: 30.09 "Hg

Humidity: 61%

Dew point: 59 °F

Location of Aix-en-ProvenceLocation

Historic Weather in Aix-en-Provence — Graph

°F

Aix-en-Provence temperature yesterday

Maximum temperature yesterday: 95 °F (at 3:30 PM)
Minimum temperature yesterday: 73 °F (at 2:30 AM)
Average temperature yesterday: 84 °F

Past Weeks' High & Low Weather Summary

 TemperatureHumidityPressure
High95 °F (Jul 4, 3:30 PM)94% (Jun 23, 1:30 AM)30.21 "Hg (Jun 23, 1:30 AM)
Low61 °F (Jun 25, 6:30 AM)20% (Jul 4, 5:00 PM)29.83 "Hg (Jun 23, 5:00 AM)
Average77 °F52%30.05 "Hg
* Reported Jun 20 1:00 AM — Jul 5 1:30 AM, Aix-en-Provence, Weather by CustomWeather, © 2015

Note: Actual official high and low records may vary slightly from our data, if they occured in-between our weather recording intervals... More about our weather records

Advertising

Aix-en-Provence weather history for previous 24 hours

 ConditionsComfort  
Time TempWeatherWind HumidityBarometerVisibility
1:30 AM
Sun, Jul 5
73 °FClear.6 mph61%30.09 "Hg10 mi
1:00 AM75 °FClear.3 mph57%30.09 "Hg10 mi
12:30 AM77 °FClear.5 mph57%30.09 "Hg10 mi
12:00 AM77 °FClear.2 mph57%30.09 "Hg10 mi
11:30 PM
Sat, Jul 4
77 °FClear.3 mph61%30.12 "Hg10 mi
11:00 PM81 °FClear.2 mph62%30.12 "Hg10 mi
10:30 PM81 °FClear.3 mph62%30.12 "Hg10 mi
10:00 PM81 °FSunny.3 mph58%30.12 "Hg10 mi
9:30 PM82 °FSunny.6 mph55%30.12 "Hg10 mi
9:00 PM82 °FSunny.8 mph55%30.12 "Hg10 mi
8:30 PM84 °FSunny.8 mph48%30.12 "Hg10 mi
8:00 PM86 °FSunny.9 mph46%30.09 "Hg10 mi
7:30 PM88 °FSunny.12 mph35%30.09 "Hg10 mi
7:00 PM90 °FSunny.13 mph31%30.12 "Hg10 mi
6:30 PM91 °FSunny.8 mph34%30.12 "Hg10 mi
6:00 PM93 °FPassing clouds.7 mph24%30.12 "HgN/A
5:30 PM93 °FSunny.9 mph26%30.12 "Hg10 mi
5:00 PM95 °FSunny.10 mph20%30.12 "Hg10 mi
4:30 PM95 °FSunny.7 mph23%30.12 "Hg10 mi
4:00 PM95 °FSunny.7 mph23%30.15 "Hg10 mi
3:30 PM95 °FSunny.8 mph23%30.15 "Hg10 mi
3:00 PM93 °FSunny.10 mph30%30.15 "Hg10 mi
2:30 PM93 °FSunny.12 mph30%30.15 "Hg10 mi
2:00 PM93 °FSunny.9 mph30%30.15 "Hg10 mi
1:30 PM91 °FSunny.6 mph30%30.18 "Hg10 mi
1:00 PM91 °FSunny.6 mph32%30.18 "Hg10 mi
12:30 PM90 °FSunny.6 mph33%30.18 "Hg10 mi
12:00 PM90 °FSunny.6 mph38%30.18 "Hg10 mi
11:30 AM90 °FSunny.7 mph36%30.18 "Hg10 mi
11:00 AM88 °FSunny.5 mph35%30.18 "Hg10 mi
10:30 AM88 °FSunny.3 mph35%30.18 "Hg10 mi
10:00 AM84 °FSunny.5 mph51%30.18 "Hg10 mi
9:30 AM86 °FSunny.3 mph38%30.18 "Hg10 mi
9:00 AM86 °FSunny.No wind40%30.18 "Hg10 mi
8:00 AM79 °FSunny.2 mph54%30.21 "Hg10 mi
7:30 AM77 °FSunny.No wind57%30.18 "Hg10 mi
7:00 AM75 °FClear.2 mph61%30.18 "Hg10 mi
6:30 AM75 °FClear.2 mph61%30.18 "Hg10 mi
6:00 AM75 °FClear.No wind57%30.18 "Hg10 mi
5:30 AM75 °FClear.No wind54%30.21 "Hg10 mi
5:00 AM75 °FClear.3 mph54%30.21 "Hg10 mi
4:30 AM73 °FClear.6 mph57%30.21 "Hg10 mi
4:00 AM75 °FClear.3 mph50%30.21 "Hg10 mi
3:30 AM73 °FClear.6 mph53%30.21 "Hg10 mi
3:00 AM73 °FClear.3 mph50%30.21 "Hg10 mi
2:30 AM73 °FClear.7 mph50%30.21 "Hg10 mi
2:00 AM77 °FClear.2 mph42%30.21 "Hg10 mi
Weather by CustomWeather, © 2015

See weather overviewHow to use our weather pages